DL7GAI-7 Weather Reports


Display with metric or nautical units.
time (UTC)temp
F
wind
direction
speed
MPH
gust
MPH
rain 1hr
in
rain 24hr
in
rain mn
in
humidity
%
barometer
mb
20260902080602 62 180 1.0 2.0 0.00 0.00 0.00 76 1021.8
20260902075111 62 180 1.0 2.0 0.00 0.00 0.00 76 1021.8
20260902073747 62 180 1.0 2.0 0.00 0.00 0.00 76 1021.8
20260902072332 58 0 1.0 2.0 0.00 0.00 0.00 85 1022.2
20260902071042 58 0 1.0 2.0 0.00 0.00 0.00 85 1022.2
20260902065812 55 90 2.0 4.0 0.00 0.00 0.00 89 1022.1
20260902064427 55 90 2.0 4.0 0.00 0.00 0.00 89 1022.1
20260902062942 54 0 2.0 4.0 0.00 0.00 0.00 92 1022.2
20260902061632 54 0 2.0 4.0 0.00 0.00 0.00 92 1022.2
20260902060217 53 0 3.0 6.0 0.00 0.00 0.00 93 1022.2
20260902054927 53 0 3.0 6.0 0.00 0.00 0.00 93 1022.2
20260902053537 55 315 4.0 6.0 0.00 0.00 0.00 88 1021.8
20260902052137 55 315 4.0 6.0 0.00 0.00 0.00 88 1021.8
20260902050812 55 315 4.0 6.0 0.00 0.00 0.00 88 1021.8
20260902045427 54 0 4.0 5.0 0.00 0.00 0.00 89 1021.9
20260902044145 54 0 4.0 5.0 0.00 0.00 0.00 89 1021.9
20260902042834 53 0 2.0 4.0 0.00 0.00 0.00 94 1022.0
20260902041530 53 0 2.0 4.0 0.00 0.00 0.00 94 1022.0
20260902040157 53 315 3.0 4.0 0.00 0.00 0.00 94 1022.1
20260902034752 53 315 3.0 4.0 0.00 0.00 0.00 94 1022.1
20260902033512 32 0 0.0 0.0 0.00 0.00 0.00 1
20260902032042 32 0 0.0 0.0 0.00 0.00 0.00 1
20260902030612 32 0 0.0 0.0 0.00 0.00 0.00 1
20260902025222 54 0 3.0 5.0 0.00 0.00 0.00 90 1022.0
20260902023812 54 0 3.0 5.0 0.00 0.00 0.00 90 1022.0
20260902022510 56 315 4.0 5.0 0.00 0.00 0.00 90 1022.0
20260902021227 56 315 4.0 5.0 0.00 0.00 0.00 90 1022.0
20260902015942 56 315 4.0 5.0 0.00 0.00 0.00 89 1021.9
20260902013207 55 0 4.0 5.0 0.00 0.00 0.00 89 1022.0
20260902011847 55 0 4.0 5.0 0.00 0.00 0.00 89 1022.0
20260902010542 56 315 3.0 6.0 0.00 0.00 0.00 88 1022.0
20260902005154 56 315 3.0 6.0 0.00 0.00 0.00 88 1022.0
20260902003807 56 315 3.0 6.0 0.00 0.00 0.00 88 1022.0
20260902002357 56 0 3.0 4.0 0.00 0.00 0.00 88 1022.0
20260902001042 56 0 3.0 4.0 0.00 0.00 0.00 88 1022.0
20260901235822 56 0 2.0 4.0 0.00 0.00 0.00 87 1022.1
20260901234602 56 0 2.0 4.0 0.00 0.00 0.00 87 1022.1
20260901233302 57 0 2.0 4.0 0.00 0.00 0.00 85 1022.0
20260901231812 57 0 2.0 4.0 0.00 0.00 0.00 85 1022.0
20260901230547 58 45 2.0 6.0 0.00 0.00 0.00 83 1022.0
20260901225232 58 45 2.0 6.0 0.00 0.00 0.00 83 1022.0
20260901223912 58 45 2.0 6.0 0.00 0.00 0.00 83 1022.0
20260901222621 59 0 1.0 6.0 0.00 0.00 0.00 81 1021.7
20260901221202 59 0 1.0 6.0 0.00 0.00 0.00 81 1021.7
20260901215752 60 0 4.0 7.0 0.00 0.00 0.00 81 1021.7
20260901214356 60 0 4.0 7.0 0.00 0.00 0.00 81 1021.7
20260901213002 59 0 6.0 7.0 0.00 0.00 0.00 81 1021.6
20260901211707 59 0 6.0 7.0 0.00 0.00 0.00 81 1021.6
20260901210447 61 45 3.0 5.0 0.00 0.00 0.00 80 1021.3
20260901205032 61 45 3.0 5.0 0.00 0.00 0.00 80 1021.3
20260901203657 61 45 3.0 5.0 0.00 0.00 0.00 80 1021.3
20260901202307 61 0 2.0 3.0 0.00 0.00 0.00 82 1021.3
20260901200932 61 0 2.0 3.0 0.00 0.00 0.00 82 1021.3
20260901195541 63 0 2.0 4.0 0.00 0.00 0.00 75 1020.9
20260901194252 63 0 2.0 4.0 0.00 0.00 0.00 75 1020.9
20260901192933 65 45 2.0 3.0 0.00 0.00 0.00 70 1020.3
20260901191607 65 45 2.0 3.0 0.00 0.00 0.00 70 1020.3
20260901190127 67 45 2.0 4.0 0.00 0.00 0.00 73 1020.1
20260901184649 67 45 2.0 4.0 0.00 0.00 0.00 73 1020.1
20260901183312 72 0 2.0 4.0 0.00 0.00 0.00 58 1019.3
20260901181947 72 0 2.0 4.0 0.00 0.00 0.00 58 1019.3
20260901180536 75 315 2.0 9.0 0.00 0.00 0.00 42 1019.2
20260901175136 75 315 2.0 9.0 0.00 0.00 0.00 42 1019.2
20260901173801 75 315 2.0 9.0 0.00 0.00 0.00 42 1019.2
20260901172316 75 270 4.0 9.0 0.00 0.00 0.00 44 1019.4
20260901170912 75 270 4.0 9.0 0.00 0.00 0.00 44 1019.4
20260901165527 76 270 5.0 11.0 0.00 0.00 0.00 43 1019.3
20260901164236 76 270 5.0 11.0 0.00 0.00 0.00 43 1019.3
20260901162836 76 270 6.0 11.0 0.00 0.00 0.00 42 1019.3
20260901161532 76 270 6.0 11.0 0.00 0.00 0.00 42 1019.3
20260901160207 76 270 6.0 12.0 0.00 0.00 0.00 42 1019.2
20260901154807 76 270 6.0 12.0 0.00 0.00 0.00 42 1019.2
20260901153507 76 270 7.0 12.0 0.00 0.00 0.00 43 1019.2
20260901152120 76 270 7.0 12.0 0.00 0.00 0.00 43 1019.2
20260901150707 76 270 7.0 12.0 0.00 0.00 0.00 43 1019.2
20260901145222 76 270 7.0 16.0 0.00 0.00 0.00 43 1019.5
20260901143847 76 270 7.0 16.0 0.00 0.00 0.00 43 1019.5
20260901142556 76 270 7.0 16.0 0.00 0.00 0.00 44 1019.6
20260901141202 76 270 7.0 16.0 0.00 0.00 0.00 44 1019.6
20260901135936 75 270 7.0 15.0 0.00 0.00 0.00 41 1019.9
20260901134632 75 270 7.0 15.0 0.00 0.00 0.00 41 1019.9
20260901133312 75 270 7.0 15.0 0.00 0.00 0.00 41 1020.2
20260901131832 75 270 7.0 15.0 0.00 0.00 0.00 41 1020.2
20260901130505 74 270 7.0 14.0 0.00 0.00 0.00 42 1020.4
20260901125112 74 270 7.0 14.0 0.00 0.00 0.00 42 1020.4
20260901123752 74 270 7.0 14.0 0.00 0.00 0.00 42 1020.4
20260901122522 74 225 7.0 14.0 0.00 0.00 0.00 46 1020.6
20260901121237 74 225 7.0 14.0 0.00 0.00 0.00 46 1020.6
20260901115816 72 270 7.0 15.0 0.00 0.00 0.00 47 1020.9
20260901114351 72 270 7.0 15.0 0.00 0.00 0.00 47 1020.9
20260901112947 72 270 7.0 14.0 0.00 0.00 0.00 50 1021.1
20260901111656 72 270 7.0 14.0 0.00 0.00 0.00 50 1021.1
20260901110242 71 270 6.0 9.0 0.00 0.00 0.00 55 1021.4
20260901104946 71 270 6.0 9.0 0.00 0.00 0.00 55 1021.4
20260901103747 71 270 6.0 9.0 0.00 0.00 0.00 55 1021.4
20260901102347 71 270 4.0 9.0 0.00 0.00 0.00 62 1021.5
20260901101022 71 270 4.0 9.0 0.00 0.00 0.00 62 1021.5
20260901095656 68 270 6.0 12.0 0.00 0.00 0.00 62 1021.8
20260901094352 68 270 6.0 12.0 0.00 0.00 0.00 62 1021.8
20260901093127 67 315 7.0 12.0 0.00 0.00 0.00 62 1021.8
20260901091712 67 315 7.0 12.0 0.00 0.00 0.00 62 1021.8
20260901090242 66 270 6.0 11.0 0.00 0.00 0.00 67 1021.7
20260901084952 66 270 6.0 11.0 0.00 0.00 0.00 67 1021.7
20260901083703 66 270 6.0 11.0 0.00 0.00 0.00 67 1021.7
20260901082317 65 270 3.0 5.0 0.00 0.00 0.00 71 1021.7
20260901080944 65 270 3.0 5.0 0.00 0.00 0.00 71 1021.7